Estación Meteorológica Peña el Pijo (Robertgarden) [ 09/30/20 20:16:03 CEST ]

Fecha Hora Presion(HPa) Temp (°C) Humedad % Rocio (°C) Viento ( m/s) Direccion Lluvia 1Hora(mm) Lluvia 24H(mm) LLuvia Total(mm)
2020-Feb-17 01:08:44 1016.600 - - - - N     39.88
2020-Feb-17 02:11:20 1016.500 - - - - N     39.88
2020-Feb-17 03:09:18 1016.200 - - - - N     39.88
2020-Feb-17 04:09:16 1015.900 - - - - N     39.88
2020-Feb-17 05:09:38 1015.700 - - - - N     39.88
2020-Feb-17 06:08:54 1015.600 - - - - N     39.88
2020-Feb-17 07:09:09 1015.700 - - - - N     39.88
2020-Feb-17 08:09:17 1016.200 - - - - N     39.88
2020-Feb-17 09:09:06 1016.200 - - - - N     39.88
2020-Feb-17 10:09:17 1016.400 - - - - N     39.88
2020-Feb-17 11:09:02 1016.300 - - - - N     39.88
2020-Feb-17 12:09:05 1016.100 - - - - N     39.88
2020-Feb-17 13:08:53 1016.000 - - - - N     39.88
2020-Feb-17 14:09:06 1015.300 - - - - N     39.88
2020-Feb-17 15:09:27 1014.500 - - - - N     39.88
2020-Feb-17 16:09:26 1014.600 - - - - N     39.88
2020-Feb-17 17:09:32 1014.900 - - - - N     39.88
2020-Feb-17 18:09:03 1015.600 - - - - N     39.88
2020-Feb-17 19:08:56 1015.800 - - - - N     39.88
2020-Feb-17 20:09:03 1016.700 - - - - N     39.88
2020-Feb-17 21:09:10 1017.000 - - - - N     39.88
2020-Feb-17 22:08:56 1017.800 - - - - N     39.88
2020-Feb-17 23:09:17 1018.100 - - - - N     39.88

Temperatura Máxima:    Temperatura Mínima:
Presión Máxima:1018.100 Hpa    Presión Mínima:1014.500 Hpa


Volver